Starlink 31387

operational
NORAD ID: 59407 Int'l Des: 2024-064 Owner: SPXS Country: US Constellation: starlink
LEOCIRCULAR

Starlink 31387について

説明を読み込み中...

リアルタイム位置

3D地球を読み込み中...

次回通過

高度履歴

Altitude vs Time

uPlot chart will show altitude changes over time

軌道要素

1 59407U 24064K 26036.91713203 .00000441 00000-0 25555-4 0 9999
2 59407 43.0017 235.8604 0001295 271.0267 89.0437 15.27575332104367
Epoch: Feb 5, 2026 • Age: 30 hours

現在のステータス

高度 482.8 km
速度 7.63 km/s
衛星直下点 17.61°N, 175.88°W
打ち上げ日 Apr 5, 2024
運用期間 1.8 years
タイプ internet

技術仕様

分類 Payload
質量 730.00 kg
乾燥質量 700.00 kg
総質量 730.00 kg
長さ 0.30 m
直径 4.10 m
スパン 29.00 m
形状 Box + pan
製造者 SPXS
バスタイプ Starlink V2M
フェーズステータス In Orbit
所有者/国 SPXS/US

大規模コンステレーション

Loading constellations...